Location: Eisingen in Unterfranken
(49.7591°N, 9.8347°E)
Time: 09:07:25
(UTC+01:00)

Envisat - Pass Details

Date: 04 December 2022
Orbit: 763 x 765 km, 98.2° (Epoch: 04 February)

Event Time Altitude Azimuth Distance (km) Brightness Sun altitude
Rises 06:20:58 0° 3° (N) 3,247 6.1 -15.2°
Reaches altitude 10° 06:23:56 10° 345° (NNW) 2,316 5.2 -14.7°
Enters shadow 06:26:21 17° 318° (NW) 1,863 4.5 -14.4°
